Regional Weather Roundup
Issued by NWS Huntsville, AL

Home | Current Version | Previous Version | Text Only | Print | Product List | Glossary On
Versions: 1 2 3 4 5 6 7 8 9 10 11 12 13 14 15 16 17 18 19 20 21 22 23 24 25 26 27 28 29 30 31 32 33 34 35 36 37 38 39 40 41 42 43 44 45 46 47 48 49 50
000
ASUS44 KHUN 181010
RWRHUN

WEATHER ROUNDUP FOR THE TENNESSEE VALLEY
NATIONAL WEATHER SERVICE HUNTSVILLE AL
500 AM CDT THU SEP 18 2014

ALZ001>004-181100-
NORTHWEST ALABAMA

CITY           SKY/WX    TMP DP  RH WIND       PRES   REMARKS
COURTLAND HCN    N/A     63 N/A N/A CALM        N/A
RUSSELLVILLE     N/A     59 N/A N/A MISG        N/A
SHOALS AIRPORT MOCLDY    62  58  86 CALM      29.96S
SHOALS TVA RES   N/A     61 N/A N/A MISG        N/A
$$

ALZ005>007-016-181100-
NORTH CENTRAL ALABAMA

CITY           SKY/WX    TMP DP  RH WIND       PRES   REMARKS
CULLMAN AG STN   N/A     61 N/A N/A CALM        N/A
DECATUR AP     RAIN      63  61  93 CALM      29.97S
HUNTSVILLE AP  LGT RAIN  65  61  87 NE5       29.96R
HUN NWS/UAH      N/A     64  59  85 SE1         N/A
MERIDIANVILLE  RAIN      61  55  82 CALM      29.97S
VINEMONT AP    FAIR      59  57  92 CALM      29.98S
$$

ALZ008>010-181100-
NORTHEAST ALABAMA

CITY           SKY/WX    TMP DP  RH WIND       PRES   REMARKS
ALBERTVILLE    MOCLDY    61  61 100 E3        29.96F
FORT PAYNE     PTCLDY    59  54  82 E3        29.97S
SCOTTSBORO AP    N/A     61  59  94 CALM      29.98S
SCOTTSBORO HCN   N/A     59 N/A N/A MISG        N/A
VALLEY HEAD      N/A     57 N/A N/A MISG        N/A
$$

TNZ076-096-097-181100-
SOUTHEASTERN MIDDLE TENNESSEE

CITY           SKY/WX    TMP DP  RH WIND       PRES   REMARKS
FAYETTEVILLE   CLEAR     57  55  94 NE10      29.98R
TULLAHOMA      PTCLDY    57  55  94 CALM      29.99S
WINCHESTER     PTCLDY    55  55 100 CALM      29.98S
$$

...SURROUNDING SITES...

CITY           SKY/WX    TMP DP  RH WIND       PRES   REMARKS
ATLANTA        PTCLDY    63  58  83 N6        29.95R
ANNISTON       MOCLDY    62  59  90 E3        29.96R
BIRMINGHAM     MOCLDY    62  57  83 CALM      29.96S
CHATTANOOGA    PTCLDY    62  58  86 CALM      29.98R
CORINTH        MOCLDY    63  61  94 CALM      29.94S
DALTON         MOCLDY    57  57 100 CALM      29.97S
GADSDEN        MOCLDY    61  55  82 CALM      29.97S
GOLDEN TRNGL   PTCLDY    64  59  82 CALM      29.93S
HALEYVILLE     FAIR      60  58  93 CALM      29.98F
JACKSON TN     CLOUDY    64  61  90 CALM      29.95R
LEWISBURG      MOCLDY    55  55 100 CALM      29.98R
MEMPHIS        CLOUDY    68  64  87 NE6       29.93R
MURFREESBORO   FAIR      59  57  92 CALM      29.98S
NASHVILLE      MOCLDY    62  58  86 CALM      29.98S
OXFORD MS      FAIR      66  64  94 SE3       29.94S
ROME           PTCLDY    60  58  92 NE3       29.96S
SAVANNAH       MOCLDY    63  63 100 CALM      29.96R
TUPELO         MOCLDY    66  64  93 NE3       29.93S
TUSCALOOSA     MOCLDY    65  62  90 CALM      29.93R
$$

...GULF COAST WEATHER...

CITY           SKY/WX    TMP DP  RH WIND       PRES   REMARKS
GULFPORT       PTCLDY    73  72  96 CALM      29.89R
PASCAGOULA     PTCLDY    71  70  96 CALM      29.90R FOG
MOBILE         CLEAR     72  71  97 CALM      29.91R
GULF SHORES    PTSUNNY   72  71  99 CALM      29.89S FOG
PENSACOLA      CLOUDY    74  73  97 N3        29.89S FOG
DESTIN         CLEAR     77  71  82 N6        29.89S
PANAMA CITY    CLEAR     72  72 100 CALM      29.89R
APPALACHICOLA  CLEAR     73  69  87 CALM      29.88S
$$



USA.gov is the U.S. government's official web portal to all federal, state and local government web resources and services.